Location: Unspecified
(0.0000°N, 0.0000°E)
Time: 23:39:36
(UTC+00:00)

STARLINK-31363 - Pass Details

Date: 06 May 2025
Orbit: 482 x 484 km, 43.0° (Epoch: 16 May)

Event Time Altitude Azimuth Distance (km) Brightness Sun altitude
Rises 05:11:09 0° 349° (N) 2,517 7.1 -10.9°
Reaches altitude 10° 05:14:36 10° 23° (NNE) 1,643 6.6 -10.1°
Maximum altitude 05:15:58 12° 44° (NE) 1,543 6.9 -9.7°
Drops below altitude 10° 05:17:21 10° 66° (ENE) 1,645 7.7 -9.4°
Sets 05:20:49 0° 99° (E) 2,527 8.3 -8.6°
